Location: Albany
(35.0170°S, 117.8920°E)
Time: 20:01:00
(UTC+08:00)

S-56A Canister/Altair - Pass Details

Date: 27 June 2021
Orbit: 632 x 2501 km, 38.9° (Epoch: 24 July)

Event Time Altitude Azimuth Distance (km) Brightness Sun altitude
Rises 21:47:26 0° 252° (WSW) 6,116 12.6 -56.6°
Reaches altitude 10° 21:53:00 10° 265° (W) 4,933 12.0 -57.7°
Enters shadow 22:01:46 21° 305° (NW) 3,662 11.0 -59.5°
